AV9772 SKBO-SKCG

Flight info

Callsign AV9772
Flight time 1h 3m
Altitude 32000
Route OSUSU4R GIKPU UQ120 DIBAM UW10 UGREB UGREB3B
Aircraft A320/M-SDE3FGHIRWY/LB1

Departure

Time 2026-05-09 00:34
Airport El Dorado International Airport (SKBO)

Arrival

Time 2026-05-09 01:37
Airport Rafael Nuñez International Airport (SKCG)
Time Latitude Longitude Altitude Speed Heading
2026-05-08 23:31 4.69930 -74.14537 8366 ft 0 kts 186°
2026-05-09 00:17 4.69947 -74.14535 8366 ft 4 kts 182°
2026-05-09 00:17 4.69968 -74.14535 8366 ft 4 kts 175°
2026-05-09 00:17 4.69995 -74.14538 8366 ft 4 kts 168°
2026-05-09 00:17 4.70020 -74.14547 8366 ft 4 kts 135°
2026-05-09 00:18 4.70035 -74.14568 8366 ft 4 kts 107°
2026-05-09 00:18 4.70035 -74.14592 8366 ft 4 kts 58°
2026-05-09 00:18 4.70017 -74.14611 8366 ft 4 kts 35°
2026-05-09 00:18 4.69996 -74.14626 8366 ft 4 kts 37°
2026-05-09 00:19 4.69984 -74.14635 8366 ft 0 kts 37°
2026-05-09 00:23 4.69994 -74.14627 8366 ft 6 kts 37°
2026-05-09 00:23 4.70029 -74.14628 8366 ft 5 kts 325°
2026-05-09 00:24 4.70056 -74.14654 8366 ft 5 kts 303°
2026-05-09 00:24 4.70043 -74.14690 8366 ft 7 kts 217°
2026-05-09 00:24 4.70003 -74.14721 8366 ft 7 kts 218°
2026-05-09 00:24 4.69952 -74.14760 8366 ft 11 kts 217°
2026-05-09 00:25 4.69891 -74.14808 8366 ft 11 kts 217°
2026-05-09 00:25 4.69848 -74.14840 8366 ft 12 kts 217°
2026-05-09 00:25 4.69808 -74.14907 8366 ft 7 kts 302°
2026-05-09 00:25 4.69809 -74.14916 8366 ft 1 kts 278°
2026-05-09 00:26 4.69819 -74.14928 8366 ft 7 kts 307°
2026-05-09 00:26 4.69872 -74.14995 8366 ft 18 kts 308°
2026-05-09 00:26 4.69965 -74.15115 8366 ft 24 kts 306°
2026-05-09 00:26 4.70061 -74.15249 8366 ft 24 kts 308°
2026-05-09 00:27 4.70161 -74.15379 8365 ft 24 kts 307°
2026-05-09 00:27 4.70259 -74.15510 8365 ft 23 kts 307°
2026-05-09 00:27 4.70360 -74.15639 8365 ft 23 kts 307°
2026-05-09 00:27 4.70455 -74.15770 8365 ft 23 kts 307°
2026-05-09 00:28 4.70553 -74.15898 8365 ft 23 kts 307°
2026-05-09 00:28 4.70650 -74.16026 8366 ft 23 kts 307°
2026-05-09 00:28 4.70746 -74.16152 8366 ft 23 kts 307°
2026-05-09 00:28 4.70842 -74.16279 8366 ft 23 kts 307°
2026-05-09 00:29 4.70937 -74.16405 8366 ft 23 kts 307°
2026-05-09 00:29 4.71032 -74.16531 8365 ft 23 kts 307°
2026-05-09 00:29 4.71128 -74.16657 8366 ft 23 kts 307°
2026-05-09 00:29 4.71197 -74.16747 8366 ft 11 kts 306°
2026-05-09 00:30 4.71178 -74.16812 8365 ft 11 kts 219°
2026-05-09 00:30 4.71158 -74.16827 8365 ft 0 kts 217°
2026-05-09 00:32 4.71145 -74.16837 8364 ft 9 kts 217°
2026-05-09 00:32 4.71056 -74.16899 8363 ft 17 kts 208°
2026-05-09 00:32 4.71007 -74.16861 8363 ft 7 kts 116°
2026-05-09 00:32 4.71001 -74.16852 8363 ft 0 kts 124°
2026-05-09 00:33 4.70858 -74.16660 8363 ft 71 kts 127°
2026-05-09 00:33 4.70428 -74.16096 8364 ft 131 kts 127°
2026-05-09 00:34 4.69771 -74.15228 8366 ft 181 kts 127°
2026-05-09 00:34 4.68989 -74.14197 8917 ft 181 kts 127°
2026-05-09 00:34 4.68350 -74.13098 9643 ft 183 kts 116°
2026-05-09 00:34 4.68019 -74.11888 10206 ft 183 kts 82°
2026-05-09 00:35 4.68474 -74.10654 10375 ft 200 kts 57°
2026-05-09 00:35 4.69490 -74.09618 10502 ft 220 kts 31°
2026-05-09 00:35 4.70976 -74.09013 10656 ft 240 kts 20°
2026-05-09 00:35 4.72589 -74.08471 11064 ft 246 kts 20°
2026-05-09 00:36 4.74201 -74.07944 11616 ft 247 kts 19°
2026-05-09 00:36 4.75865 -74.07403 12209 ft 249 kts 20°
2026-05-09 00:36 4.77519 -74.06862 12780 ft 252 kts 19°
2026-05-09 00:36 4.79197 -74.06310 13309 ft 258 kts 19°
2026-05-09 00:37 4.80977 -74.05717 13438 ft 281 kts 19°
2026-05-09 00:37 4.82907 -74.05069 13601 ft 302 kts 19°
2026-05-09 00:37 4.84904 -74.04397 14068 ft 310 kts 19°
2026-05-09 00:37 4.86961 -74.03703 14616 ft 314 kts 19°
2026-05-09 00:38 4.89043 -74.02998 15175 ft 317 kts 19°
2026-05-09 00:38 4.91142 -74.02285 15731 ft 320 kts 19°
2026-05-09 00:38 4.93264 -74.01562 16285 ft 324 kts 19°
2026-05-09 00:38 4.95409 -74.00833 16843 ft 327 kts 19°
2026-05-09 00:39 4.97572 -74.00098 17404 ft 329 kts 19°
2026-05-09 00:39 4.99751 -73.99360 17935 ft 332 kts 19°
2026-05-09 00:39 5.01959 -73.98622 18451 ft 336 kts 17°
2026-05-09 00:39 5.04223 -73.97961 18828 ft 344 kts 15°
2026-05-09 00:40 5.06597 -73.97357 18928 ft 360 kts 13°
2026-05-09 00:40 5.09084 -73.96769 19051 ft 374 kts 13°
2026-05-09 00:40 5.11661 -73.96171 19236 ft 385 kts 13°
2026-05-09 00:41 5.16948 -73.94911 20008 ft 394 kts 13°
2026-05-09 00:41 5.19613 -73.94252 20448 ft 396 kts 14°
2026-05-09 00:41 5.22301 -73.93581 20886 ft 399 kts 14°
2026-05-09 00:41 5.25010 -73.92902 21355 ft 402 kts 14°
2026-05-09 00:42 5.27733 -73.92219 21757 ft 405 kts 14°
2026-05-09 00:42 5.30473 -73.91532 22192 ft 408 kts 14°
2026-05-09 00:42 5.33236 -73.90840 22628 ft 410 kts 13°
2026-05-09 00:42 5.35974 -73.90158 23047 ft 413 kts 13°
2026-05-09 00:43 5.38812 -73.89454 23474 ft 416 kts 13°
2026-05-09 00:43 5.41594 -73.88763 23828 ft 418 kts 13°
2026-05-09 00:43 5.44429 -73.88058 24150 ft 421 kts 13°
2026-05-09 00:43 5.47290 -73.87343 24463 ft 424 kts 13°
2026-05-09 00:44 5.50158 -73.86626 24792 ft 426 kts 13°
2026-05-09 00:44 5.53043 -73.85906 25128 ft 428 kts 13°
2026-05-09 00:44 5.55950 -73.85225 25412 ft 430 kts 11°
2026-05-09 00:44 5.58884 -73.84601 25724 ft 432 kts 11°
2026-05-09 00:45 5.61846 -73.84010 26028 ft 435 kts 10°
2026-05-09 00:45 5.64824 -73.83431 26331 ft 437 kts 10°
2026-05-09 00:45 5.67813 -73.82846 26630 ft 439 kts 11°
2026-05-09 00:45 5.70814 -73.82246 26884 ft 441 kts 11°
2026-05-09 00:46 5.73829 -73.81632 27175 ft 443 kts 11°
2026-05-09 00:46 5.76858 -73.81008 27450 ft 445 kts 11°
2026-05-09 00:46 5.79902 -73.80376 27734 ft 447 kts 11°
2026-05-09 00:46 5.82954 -73.79742 28017 ft 449 kts 11°
2026-05-09 00:47 5.86029 -73.79104 28294 ft 451 kts 11°
2026-05-09 00:47 5.89100 -73.78467 28644 ft 451 kts 11°
2026-05-09 00:47 5.92172 -73.77833 28940 ft 452 kts 11°
2026-05-09 00:47 5.95261 -73.77197 29211 ft 453 kts 11°
2026-05-09 00:48 5.98359 -73.76560 29475 ft 455 kts 11°
2026-05-09 00:48 6.01467 -73.75922 29687 ft 457 kts 11°
2026-05-09 00:48 6.04583 -73.75283 29940 ft 459 kts 11°
2026-05-09 00:48 6.07718 -73.74639 30184 ft 460 kts 11°
2026-05-09 00:49 6.10864 -73.73992 30393 ft 462 kts 11°
2026-05-09 00:49 6.14015 -73.73344 30559 ft 463 kts 11°
2026-05-09 00:49 6.17175 -73.72695 30768 ft 464 kts 11°
2026-05-09 00:49 6.20346 -73.72042 30975 ft 465 kts 11°
2026-05-09 00:50 6.23519 -73.71386 31228 ft 464 kts 12°
2026-05-09 00:50 6.26643 -73.70743 31515 ft 463 kts 12°
2026-05-09 00:50 6.29797 -73.70094 31758 ft 462 kts 12°
2026-05-09 00:50 6.32951 -73.69442 31947 ft 463 kts 12°
2026-05-09 00:51 6.36067 -73.68798 31994 ft 452 kts 12°
2026-05-09 00:51 6.39124 -73.68167 31999 ft 444 kts 12°
2026-05-09 00:51 6.45136 -73.66923 31963 ft 440 kts 12°
2026-05-09 00:52 6.51122 -73.65687 31965 ft 439 kts 12°
2026-05-09 00:52 6.57102 -73.64456 31967 ft 437 kts 11°
2026-05-09 00:53 6.63067 -73.63231 31966 ft 437 kts 12°
2026-05-09 00:53 6.69031 -73.62001 31965 ft 437 kts 12°
2026-05-09 00:54 6.74989 -73.60765 31918 ft 437 kts 12°
2026-05-09 00:54 6.80948 -73.59532 31898 ft 437 kts 12°
2026-05-09 00:55 6.86904 -73.58303 31858 ft 437 kts 12°
2026-05-09 00:55 6.92854 -73.57078 31850 ft 436 kts 12°
2026-05-09 00:56 6.98847 -73.56145 31847 ft 436 kts
2026-05-09 00:56 7.04910 -73.56399 31872 ft 436 kts 358°
2026-05-09 00:57 7.10935 -73.56688 31871 ft 436 kts 358°
2026-05-09 00:57 7.17037 -73.56981 31872 ft 436 kts 358°
2026-05-09 00:58 7.23082 -73.57270 31870 ft 436 kts 358°
2026-05-09 00:58 7.29169 -73.57558 31863 ft 436 kts 358°
2026-05-09 00:59 7.35222 -73.57847 31872 ft 436 kts 358°
2026-05-09 00:59 7.41242 -73.58134 31871 ft 435 kts 358°
2026-05-09 01:00 7.47294 -73.58425 31870 ft 435 kts 358°
2026-05-09 01:00 7.53361 -73.58710 31870 ft 435 kts 358°
2026-05-09 01:01 7.59363 -73.58994 31873 ft 435 kts 358°
2026-05-09 01:01 7.65423 -73.59284 31876 ft 435 kts 358°
2026-05-09 01:02 7.71457 -73.59575 31880 ft 434 kts 358°
2026-05-09 01:02 7.77510 -73.59869 31887 ft 434 kts 358°
2026-05-09 01:03 7.83503 -73.60159 31883 ft 433 kts 358°
2026-05-09 01:03 7.89567 -73.60449 31884 ft 433 kts 358°
2026-05-09 01:04 7.95547 -73.60731 31886 ft 433 kts 358°
2026-05-09 01:04 8.01564 -73.61019 31898 ft 433 kts 358°
2026-05-09 01:05 8.07586 -73.61307 31888 ft 433 kts 358°
2026-05-09 01:06 8.16566 -73.62146 31893 ft 434 kts 345°
2026-05-09 01:06 8.19383 -73.63245 31893 ft 435 kts 333°
2026-05-09 01:06 8.21945 -73.64878 31890 ft 436 kts 322°
2026-05-09 01:07 8.26186 -73.69259 31869 ft 438 kts 313°
2026-05-09 01:07 8.30262 -73.73831 31865 ft 438 kts 313°
2026-05-09 01:08 8.34346 -73.78408 31866 ft 439 kts 313°
2026-05-09 01:08 8.38431 -73.82993 31862 ft 439 kts 313°
2026-05-09 01:09 8.42525 -73.87585 31857 ft 440 kts 313°
2026-05-09 01:09 8.46627 -73.92186 31853 ft 441 kts 314°
2026-05-09 01:10 8.50038 -73.96018 31855 ft 441 kts 313°
2026-05-09 01:10 8.54140 -74.00625 31857 ft 441 kts 313°
2026-05-09 01:11 8.58249 -74.05237 31865 ft 441 kts 313°
2026-05-09 01:11 8.62320 -74.09812 31851 ft 440 kts 313°
2026-05-09 01:12 8.66413 -74.14416 31849 ft 440 kts 313°
2026-05-09 01:12 8.70497 -74.19020 31848 ft 440 kts 313°
2026-05-09 01:13 8.74585 -74.23622 31846 ft 440 kts 313°
2026-05-09 01:13 8.78677 -74.28219 31832 ft 440 kts 313°
2026-05-09 01:14 8.82776 -74.32834 31831 ft 441 kts 313°
2026-05-09 01:14 8.86870 -74.37445 31833 ft 441 kts 313°
2026-05-09 01:15 8.90970 -74.42055 31835 ft 441 kts 313°
2026-05-09 01:15 8.95060 -74.46669 31835 ft 440 kts 313°
2026-05-09 01:16 8.99143 -74.51283 31162 ft 440 kts 313°
2026-05-09 01:16 9.01178 -74.53575 30641 ft 437 kts 313°
2026-05-09 01:16 9.03210 -74.55864 30124 ft 435 kts 313°
2026-05-09 01:17 9.07228 -74.60405 29051 ft 430 kts 313°
2026-05-09 01:17 9.09211 -74.62654 28556 ft 426 kts 313°
2026-05-09 01:17 9.11177 -74.64877 28079 ft 422 kts 314°
2026-05-09 01:17 9.13129 -74.67080 27601 ft 419 kts 314°
2026-05-09 01:18 9.15070 -74.69269 27135 ft 416 kts 314°
2026-05-09 01:18 9.16998 -74.71445 26667 ft 414 kts 314°
2026-05-09 01:18 9.18914 -74.73607 26205 ft 412 kts 314°
2026-05-09 01:18 9.20795 -74.75733 25745 ft 410 kts 314°
2026-05-09 01:19 9.22693 -74.77875 25263 ft 409 kts 315°
2026-05-09 01:19 9.24589 -74.80014 24783 ft 408 kts 315°
2026-05-09 01:19 9.26484 -74.82152 24277 ft 408 kts 315°
2026-05-09 01:19 9.28401 -74.84257 23772 ft 404 kts 320°
2026-05-09 01:20 9.30570 -74.86008 23236 ft 395 kts 329°
2026-05-09 01:20 9.32798 -74.87596 22714 ft 388 kts 328°
2026-05-09 01:20 9.34982 -74.89157 22243 ft 381 kts 328°
2026-05-09 01:20 9.37125 -74.90690 21770 ft 374 kts 328°
2026-05-09 01:21 9.39241 -74.92206 21317 ft 371 kts 327°
2026-05-09 01:21 9.41344 -74.93707 20861 ft 370 kts 327°
2026-05-09 01:21 9.43446 -74.95205 20399 ft 369 kts 327°
2026-05-09 01:21 9.45549 -74.96704 19960 ft 368 kts 327°
2026-05-09 01:22 9.47640 -74.98197 19501 ft 368 kts 326°
2026-05-09 01:22 9.49730 -74.99690 19049 ft 367 kts 326°
2026-05-09 01:22 9.51820 -75.01182 18600 ft 367 kts 327°
2026-05-09 01:22 9.53908 -75.02667 18137 ft 367 kts 327°
2026-05-09 01:23 9.55982 -75.04143 17810 ft 361 kts 327°
2026-05-09 01:23 9.58035 -75.05607 17385 ft 359 kts 326°
2026-05-09 01:23 9.60074 -75.07058 16950 ft 358 kts 327°
2026-05-09 01:23 9.62106 -75.08507 16532 ft 356 kts 327°
2026-05-09 01:24 9.64128 -75.09952 16109 ft 355 kts 327°
2026-05-09 01:24 9.66144 -75.11393 15688 ft 354 kts 327°
2026-05-09 01:24 9.68131 -75.12813 15277 ft 353 kts 327°
2026-05-09 01:24 9.70113 -75.14229 14863 ft 342 kts 328°
2026-05-09 01:25 9.72026 -75.15596 14461 ft 331 kts 327°
2026-05-09 01:25 9.73879 -75.16919 14088 ft 321 kts 329°
2026-05-09 01:25 9.75699 -75.18174 13717 ft 316 kts 330°
2026-05-09 01:25 9.77541 -75.19398 13306 ft 317 kts 331°
2026-05-09 01:26 9.79394 -75.20615 12923 ft 318 kts 331°
2026-05-09 01:26 9.81250 -75.21836 12534 ft 318 kts 330°
2026-05-09 01:26 9.83098 -75.23058 12152 ft 317 kts 330°
2026-05-09 01:26 9.84939 -75.24283 11763 ft 315 kts 330°
2026-05-09 01:27 9.86771 -75.25510 11371 ft 316 kts 330°
2026-05-09 01:27 9.88607 -75.26740 10997 ft 315 kts 329°
2026-05-09 01:27 9.90432 -75.27962 10618 ft 314 kts 329°
2026-05-09 01:27 9.92244 -75.29174 10190 ft 311 kts 329°
2026-05-09 01:28 9.94041 -75.30377 9787 ft 308 kts 329°
2026-05-09 01:28 9.95814 -75.31564 9348 ft 303 kts 329°
2026-05-09 01:28 9.97561 -75.32730 8949 ft 298 kts 329°
2026-05-09 01:28 9.99281 -75.33880 8534 ft 293 kts 328°
2026-05-09 01:29 10.00984 -75.35019 8129 ft 293 kts 328°
2026-05-09 01:29 10.02685 -75.36155 7711 ft 293 kts 328°
2026-05-09 01:29 10.04364 -75.37277 7295 ft 293 kts 328°
2026-05-09 01:29 10.06070 -75.38417 6868 ft 294 kts 328°
2026-05-09 01:30 10.07770 -75.39558 6483 ft 292 kts 328°
2026-05-09 01:30 10.09461 -75.40693 6114 ft 289 kts 328°
2026-05-09 01:30 10.11147 -75.41825 5635 ft 290 kts 328°
2026-05-09 01:30 10.12825 -75.42950 5115 ft 292 kts 328°
2026-05-09 01:31 10.14527 -75.44090 4586 ft 291 kts 327°
2026-05-09 01:31 10.16184 -75.45202 4110 ft 280 kts 328°
2026-05-09 01:31 10.17758 -75.46257 3892 ft 259 kts 328°
2026-05-09 01:31 10.19195 -75.47219 3818 ft 238 kts 328°
2026-05-09 01:32 10.20560 -75.48132 3735 ft 234 kts 328°
2026-05-09 01:32 10.21905 -75.49033 3630 ft 225 kts 328°
2026-05-09 01:32 10.23159 -75.49875 3534 ft 210 kts 328°
2026-05-09 01:32 10.24370 -75.50687 3443 ft 206 kts 328°
2026-05-09 01:33 10.25564 -75.51478 3352 ft 204 kts 331°
2026-05-09 01:33 10.26848 -75.51940 3225 ft 192 kts 352°
2026-05-09 01:33 10.28196 -75.51957 2821 ft 194 kts
2026-05-09 01:33 10.29515 -75.51897 2536 ft 185 kts
2026-05-09 01:34 10.30760 -75.51844 2300 ft 172 kts
2026-05-09 01:34 10.31915 -75.51796 2073 ft 157 kts
2026-05-09 01:34 10.32963 -75.51753 1879 ft 148 kts
2026-05-09 01:34 10.33955 -75.51713 1722 ft 143 kts
2026-05-09 01:35 10.34930 -75.51672 1537 ft 138 kts
2026-05-09 01:35 10.35897 -75.51632 1351 ft 139 kts
2026-05-09 01:35 10.36861 -75.51593 1199 ft 137 kts
2026-05-09 01:35 10.37828 -75.51553 986 ft 140 kts
2026-05-09 01:36 10.38790 -75.51525 718 ft 138 kts
2026-05-09 01:36 10.39742 -75.51465 563 ft 135 kts
2026-05-09 01:36 10.40704 -75.51410 446 ft 144 kts
2026-05-09 01:36 10.41680 -75.51408 263 ft 137 kts
2026-05-09 01:37 10.42648 -75.51350 84 ft 135 kts
2026-05-09 01:37 10.43559 -75.51321 11 ft 120 kts
2026-05-09 01:37 10.44096 -75.51298 8 ft 46 kts
2026-05-09 01:37 10.44397 -75.51284 11 ft 41 kts
2026-05-09 01:38 10.44592 -75.51275 12 ft 16 kts
2026-05-09 01:38 10.44647 -75.51349 12 ft 15 kts 264°
2026-05-09 01:38 10.44639 -75.51371 12 ft 0 kts 249°
2026-05-09 01:39 10.44634 -75.51394 12 ft 9 kts 263°
2026-05-09 01:40 10.44645 -75.51478 12 ft 14 kts 281°
2026-05-09 01:40 10.44648 -75.51537 12 ft 3 kts 274°
2026-05-09 01:40 10.44648 -75.51545 12 ft 0 kts 273°
2026-05-09 01:42 10.44648 -75.51544 12 ft 0 kts 273°
2026-05-09 01:44 10.44648 -75.51545 12 ft 0 kts 273°